sat.trackr.live / text

‹ back to catalog

STARLINK-35920

NORAD 66623 · 2025-271G

PAYLOAD ACTIVE UNKNOWN

§ Identity

Operator
Country
US
Launch date
2025-11-23
Launch site
AFWTR
Launch vehicle
Mass (kg)
RCS (m²)

Purposes: comms

External: N2YO · Heavens-Above · Gunter

§ Orbital elements

Epoch: 2026-09-20T10:11:08.840832Z

Period
93.85 min
Inclination
53.1575°
Eccentricity
0.0002856
Mean motion
15.34413311 rev/d
Perigee alt
460.7 km
Apogee alt
464.6 km
Semi-major
6,840.8 km
B*
5.8947e-4
RAAN
310.2925°
Arg perigee
27.3041°
Mean anomaly
332.8111°
Rev number
4,745

§ Raw data

STARLINK-359201 66623U 25271G   26263.42440788  .00019601  00000+0  58947-3 0  99982 66623  53.1575 310.2925 0002856  27.3041 332.8111 15.34413311 47456

JSON: /api/v1/satellites/66623 · /tle

For live sub-satellite position, see the globe view (requires WebGL).

§ Visibility from observer

Set your observer location to see the next 7 days of passes ≥ 10°. The values pass through the URL so the page stays shareable.

No JS? Fill the form by hand. The geolocation button needs JavaScript.